contact:dominique.lefevre@mio.osupytheas.fr, maurice.libes@osupytheas.fr, didier.mallarino@osupytheas.fr
Project:EMSO http://www.emso-fr.org/EMSO-France
Depth: 2436.0 m
Title:EMSO Ligure Ouest : Data MII capteur MICROCAT
DateTime_Computer,Latitude,Longitude,Temperature,Conductivity,Pressure,DateTime_Instrument
DateTime_Computer,Latitude,Longitude,degC,S m-1,dbar,DateTime_Instrument
2023-11-30T00:01:59Z,42.805,6.029,13.3036,4.60105,2470.74,2023-11-30T02:04:27Z
2023-11-30T00:05:02Z,42.805,6.029,13.3033,4.60107,2470.74,2023-11-30T02:07:30Z
2023-11-30T00:08:05Z,42.805,6.029,13.3031,4.60104,2470.693,2023-11-30T02:10:33Z
2023-11-30T00:11:08Z,42.805,6.029,13.3033,4.60104,2470.717,2023-11-30T02:13:37Z
2023-11-30T00:14:11Z,42.805,6.029,13.3034,4.60104,2470.717,2023-11-30T02:16:40Z
2023-11-30T00:17:14Z,42.805,6.029,13.3033,4.60104,2470.74,2023-11-30T02:19:43Z
2023-11-30T00:20:17Z,42.805,6.029,13.3034,4.60103,2470.74,2023-11-30T02:22:46Z
2023-11-30T00:23:20Z,42.805,6.029,13.3029,4.60104,2470.717,2023-11-30T02:25:49Z
2023-11-30T00:26:23Z,42.805,6.029,13.3032,4.60106,2470.717,2023-11-30T02:28:52Z
2023-11-30T00:29:27Z,42.805,6.029,13.3029,4.60104,2470.754,2023-11-30T02:31:55Z
2023-11-30T00:32:30Z,42.805,6.029,13.3035,4.60103,2470.73,2023-11-30T02:34:58Z
2023-11-30T00:35:33Z,42.805,6.029,13.3031,4.60104,2470.777,2023-11-30T02:38:01Z
2023-11-30T00:38:36Z,42.805,6.029,13.3031,4.60104,2470.73,2023-11-30T02:41:04Z
2023-11-30T00:41:39Z,42.805,6.029,13.3033,4.60104,2470.74,2023-11-30T02:44:07Z
2023-11-30T00:44:42Z,42.805,6.029,13.3031,4.60104,2470.717,2023-11-30T02:47:10Z
2023-11-30T00:47:45Z,42.805,6.029,13.3035,4.60104,2470.717,2023-11-30T02:50:14Z
2023-11-30T00:50:48Z,42.805,6.029,13.3034,4.60104,2470.717,2023-11-30T02:53:17Z
2023-11-30T00:53:51Z,42.805,6.029,13.3032,4.60104,2470.74,2023-11-30T02:56:20Z
2023-11-30T00:56:54Z,42.805,6.029,13.3032,4.60104,2470.74,2023-11-30T02:59:23Z
2023-11-30T00:59:57Z,42.805,6.029,13.3034,4.60104,2470.74,2023-11-30T03:02:26Z
2023-11-30T01:03:00Z,42.805,6.029,13.3034,4.60104,2470.74,2023-11-30T03:05:29Z
2023-11-30T01:06:04Z,42.805,6.029,13.3031,4.60104,2470.74,2023-11-30T03:08:32Z
2023-11-30T01:09:07Z,42.805,6.029,13.3034,4.60109,2470.717,2023-11-30T03:11:35Z
2023-11-30T01:12:10Z,42.805,6.029,13.3034,4.60107,2470.74,2023-11-30T03:14:38Z
2023-11-30T01:15:13Z,42.805,6.029,13.3030,4.60106,2470.74,2023-11-30T03:17:41Z
2023-11-30T01:18:16Z,42.805,6.029,13.3031,4.60103,2470.67,2023-11-30T03:20:44Z
2023-11-30T01:21:19Z,42.805,6.029,13.3034,4.60103,2470.707,2023-11-30T03:23:47Z
2023-11-30T01:24:22Z,42.805,6.029,13.3033,4.60103,2470.717,2023-11-30T03:26:50Z
2023-11-30T01:27:25Z,42.805,6.029,13.3037,4.60104,2470.717,2023-11-30T03:29:54Z
2023-11-30T01:30:28Z,42.805,6.029,13.3034,4.60104,2470.67,2023-11-30T03:32:57Z
2023-11-30T01:33:31Z,42.805,6.029,13.3032,4.60103,2470.73,2023-11-30T03:36:00Z
2023-11-30T01:36:34Z,42.805,6.029,13.3035,4.60104,2470.693,2023-11-30T03:39:03Z
2023-11-30T01:39:37Z,42.805,6.029,13.3034,4.60104,2470.693,2023-11-30T03:42:06Z
2023-11-30T01:42:41Z,42.805,6.029,13.3034,4.60104,2470.707,2023-11-30T03:45:09Z
2023-11-30T01:45:44Z,42.805,6.029,13.3033,4.60104,2470.73,2023-11-30T03:48:12Z
2023-11-30T01:48:47Z,42.805,6.029,13.3030,4.60104,2470.717,2023-11-30T03:51:15Z
2023-11-30T01:51:50Z,42.805,6.029,13.3034,4.60104,2470.717,2023-11-30T03:54:18Z
2023-11-30T01:54:53Z,42.805,6.029,13.3030,4.60105,2470.693,2023-11-30T03:57:21Z
2023-11-30T01:57:56Z,42.805,6.029,13.3034,4.60104,2470.693,2023-11-30T04:00:24Z
2023-11-30T02:00:59Z,42.805,6.029,13.3034,4.60104,2470.684,2023-11-30T04:03:27Z
2023-11-30T02:04:02Z,42.805,6.029,13.3032,4.60104,2470.707,2023-11-30T04:06:31Z
2023-11-30T02:07:05Z,42.805,6.029,13.3033,4.60104,2470.707,2023-11-30T04:09:34Z
2023-11-30T02:10:08Z,42.805,6.029,13.3035,4.60104,2470.707,2023-11-30T04:12:37Z
2023-11-30T02:13:11Z,42.805,6.029,13.3036,4.60104,2470.721,2023-11-30T04:15:40Z
2023-11-30T02:16:14Z,42.805,6.029,13.3031,4.60104,2470.693,2023-11-30T04:18:43Z
2023-11-30T02:19:17Z,42.805,6.029,13.3035,4.60103,2470.693,2023-11-30T04:21:46Z
2023-11-30T02:22:21Z,42.805,6.029,13.3034,4.60104,2470.693,2023-11-30T04:24:49Z
2023-11-30T02:25:24Z,42.805,6.029,13.3031,4.60103,2470.707,2023-11-30T04:27:52Z
2023-11-30T02:28:27Z,42.805,6.029,13.3033,4.60103,2470.679,2023-11-30T04:30:55Z
2023-11-30T02:31:30Z,42.805,6.029,13.3033,4.60104,2470.67,2023-11-30T04:33:58Z
2023-11-30T02:34:33Z,42.805,6.029,13.3034,4.60104,2470.717,2023-11-30T04:37:01Z
2023-11-30T02:37:36Z,42.805,6.029,13.3033,4.60103,2470.693,2023-11-30T04:40:04Z
2023-11-30T02:40:39Z,42.805,6.029,13.3034,4.60104,2470.707,2023-11-30T04:43:07Z
2023-11-30T02:43:42Z,42.805,6.029,13.3033,4.60104,2470.67,2023-11-30T04:46:11Z
2023-11-30T02:46:45Z,42.805,6.029,13.3033,4.60104,2470.717,2023-11-30T04:49:14Z
2023-11-30T02:49:48Z,42.805,6.029,13.3032,4.60105,2470.693,2023-11-30T04:52:17Z
2023-11-30T02:52:51Z,42.805,6.029,13.3032,4.60104,2470.693,2023-11-30T04:55:20Z
2023-11-30T02:55:54Z,42.805,6.029,13.3034,4.60104,2470.693,2023-11-30T04:58:23Z
2023-11-30T02:58:57Z,42.805,6.029,13.3031,4.60104,2470.693,2023-11-30T05:01:26Z
2023-11-30T03:02:01Z,42.805,6.029,13.3031,4.60103,2470.717,2023-11-30T05:04:29Z
2023-11-30T03:05:04Z,42.805,6.029,13.3033,4.60104,2470.74,2023-11-30T05:07:32Z
2023-11-30T03:08:07Z,42.805,6.029,13.3035,4.60104,2470.707,2023-11-30T05:10:35Z
2023-11-30T03:11:10Z,42.805,6.029,13.3031,4.60104,2470.693,2023-11-30T05:13:38Z
2023-11-30T03:14:13Z,42.805,6.029,13.3034,4.60104,2470.693,2023-11-30T05:16:41Z
2023-11-30T03:17:16Z,42.805,6.029,13.3033,4.60104,2470.717,2023-11-30T05:19:44Z
2023-11-30T03:20:19Z,42.805,6.029,13.3030,4.60112,2470.717,2023-11-30T05:22:48Z
2023-11-30T03:23:22Z,42.805,6.029,13.3031,4.60104,2470.693,2023-11-30T05:25:51Z
2023-11-30T03:26:25Z,42.805,6.029,13.3034,4.60104,2470.717,2023-11-30T05:28:54Z
2023-11-30T03:29:28Z,42.805,6.029,13.3036,4.60105,2470.693,2023-11-30T05:31:57Z
2023-11-30T03:32:31Z,42.805,6.029,13.3035,4.60104,2470.717,2023-11-30T05:35:00Z
2023-11-30T03:35:34Z,42.805,6.029,13.3034,4.60105,2470.74,2023-11-30T05:38:03Z
2023-11-30T03:38:38Z,42.805,6.029,13.3032,4.60106,2470.717,2023-11-30T05:41:06Z
2023-11-30T03:41:41Z,42.805,6.029,13.3029,4.60104,2470.707,2023-11-30T05:44:09Z
2023-11-30T03:44:44Z,42.805,6.029,13.3034,4.60104,2470.717,2023-11-30T05:47:12Z
2023-11-30T03:47:47Z,42.805,6.029,13.3036,4.60104,2470.693,2023-11-30T05:50:15Z
2023-11-30T03:50:50Z,42.805,6.029,13.3033,4.60104,2470.73,2023-11-30T05:53:18Z
2023-11-30T03:53:53Z,42.805,6.029,13.3041,4.60106,2470.707,2023-11-30T05:56:21Z
2023-11-30T03:56:56Z,42.805,6.029,13.3034,4.60104,2470.717,2023-11-30T05:59:25Z
2023-11-30T03:59:59Z,42.805,6.029,13.3034,4.60108,2470.717,2023-11-30T06:02:28Z
2023-11-30T04:03:02Z,42.805,6.029,13.3038,4.60106,2470.693,2023-11-30T06:05:31Z
2023-11-30T04:06:05Z,42.805,6.029,13.3038,4.60104,2470.707,2023-11-30T06:08:34Z
2023-11-30T04:09:08Z,42.805,6.029,13.3034,4.60105,2470.717,2023-11-30T06:11:37Z
2023-11-30T04:12:11Z,42.805,6.029,13.3034,4.60104,2470.74,2023-11-30T06:14:40Z
2023-11-30T04:15:14Z,42.805,6.029,13.3033,4.60104,2470.74,2023-11-30T06:17:43Z
2023-11-30T04:18:18Z,42.805,6.029,13.3031,4.60105,2470.717,2023-11-30T06:20:46Z
2023-11-30T04:21:21Z,42.805,6.029,13.3034,4.60105,2470.717,2023-11-30T06:23:49Z
2023-11-30T04:24:24Z,42.805,6.029,13.3036,4.60105,2470.717,2023-11-30T06:26:52Z
2023-11-30T04:27:27Z,42.805,6.029,13.3033,4.60106,2470.74,2023-11-30T06:29:55Z
2023-11-30T04:30:30Z,42.805,6.029,13.3033,4.60107,2470.74,2023-11-30T06:32:58Z
2023-11-30T04:33:33Z,42.805,6.029,13.3035,4.60105,2470.717,2023-11-30T06:36:01Z
2023-11-30T04:36:36Z,42.805,6.029,13.3034,4.60107,2470.763,2023-11-30T06:39:05Z
2023-11-30T04:39:39Z,42.805,6.029,13.3034,4.60104,2470.754,2023-11-30T06:42:08Z
2023-11-30T04:42:42Z,42.805,6.029,13.3033,4.60104,2470.74,2023-11-30T06:45:11Z
2023-11-30T04:45:45Z,42.805,6.029,13.3034,4.60107,2470.777,2023-11-30T06:48:14Z
2023-11-30T04:48:48Z,42.805,6.029,13.3035,4.60104,2470.763,2023-11-30T06:51:17Z
2023-11-30T04:51:52Z,42.805,6.029,13.3031,4.60104,2470.74,2023-11-30T06:54:20Z
2023-11-30T04:54:55Z,42.805,6.029,13.3034,4.60104,2470.74,2023-11-30T06:57:23Z
2023-11-30T04:57:58Z,42.805,6.029,13.3027,4.60108,2470.763,2023-11-30T07:00:26Z
2023-11-30T05:01:01Z,42.805,6.029,13.3034,4.60104,2470.777,2023-11-30T07:03:29Z
2023-11-30T05:04:04Z,42.805,6.029,13.3036,4.60106,2470.726,2023-11-30T07:06:32Z
2023-11-30T05:07:07Z,42.805,6.029,13.3034,4.60105,2470.754,2023-11-30T07:09:35Z
2023-11-30T05:10:10Z,42.805,6.029,13.3032,4.60104,2470.763,2023-11-30T07:12:38Z
2023-11-30T05:13:13Z,42.805,6.029,13.3034,4.60104,2470.763,2023-11-30T07:15:42Z
2023-11-30T05:16:16Z,42.805,6.029,13.3031,4.60105,2470.763,2023-11-30T07:18:45Z
2023-11-30T05:19:19Z,42.805,6.029,13.3035,4.60104,2470.787,2023-11-30T07:21:48Z
2023-11-30T05:22:22Z,42.805,6.029,13.3033,4.60106,2470.763,2023-11-30T07:24:51Z
2023-11-30T05:25:25Z,42.805,6.029,13.3031,4.60104,2470.763,2023-11-30T07:27:54Z
2023-11-30T05:28:28Z,42.805,6.029,13.3034,4.60106,2470.787,2023-11-30T07:30:57Z
2023-11-30T05:31:32Z,42.805,6.029,13.3033,4.60104,2470.787,2023-11-30T07:34:00Z
2023-11-30T05:34:35Z,42.805,6.029,13.3033,4.60104,2470.8,2023-11-30T07:37:03Z
2023-11-30T05:37:38Z,42.805,6.029,13.3036,4.60105,2470.787,2023-11-30T07:40:06Z
2023-11-30T05:40:41Z,42.805,6.029,13.3036,4.60105,2470.824,2023-11-30T07:43:09Z
2023-11-30T05:43:44Z,42.805,6.029,13.3036,4.60104,2470.787,2023-11-30T07:46:12Z
2023-11-30T05:46:47Z,42.805,6.029,13.3035,4.60106,2470.81,2023-11-30T07:49:16Z
2023-11-30T05:49:50Z,42.805,6.029,13.3034,4.60105,2470.773,2023-11-30T07:52:19Z
2023-11-30T05:52:53Z,42.805,6.029,13.3032,4.60106,2470.787,2023-11-30T07:55:22Z
2023-11-30T05:55:56Z,42.805,6.029,13.3033,4.60105,2470.81,2023-11-30T07:58:25Z
2023-11-30T05:58:59Z,42.805,6.029,13.3034,4.60105,2470.81,2023-11-30T08:01:28Z
2023-11-30T06:02:02Z,42.805,6.029,13.3034,4.60106,2470.824,2023-11-30T08:04:31Z
2023-11-30T06:05:06Z,42.805,6.029,13.3032,4.60105,2470.857,2023-11-30T08:07:34Z
2023-11-30T06:08:09Z,42.805,6.029,13.3031,4.60104,2470.81,2023-11-30T08:10:37Z
2023-11-30T06:11:12Z,42.805,6.029,13.3034,4.60104,2470.824,2023-11-30T08:13:40Z
2023-11-30T06:14:15Z,42.805,6.029,13.3036,4.60106,2470.833,2023-11-30T08:16:43Z
2023-11-30T06:17:18Z,42.805,6.029,13.3034,4.60107,2470.81,2023-11-30T08:19:46Z
2023-11-30T06:20:21Z,42.805,6.029,13.3034,4.60107,2470.81,2023-11-30T08:22:49Z
2023-11-30T06:23:24Z,42.805,6.029,13.3033,4.60107,2470.833,2023-11-30T08:25:53Z
2023-11-30T06:26:27Z,42.805,6.029,13.3028,4.60104,2470.857,2023-11-30T08:28:56Z
2023-11-30T06:29:30Z,42.805,6.029,13.3036,4.60105,2470.894,2023-11-30T08:31:59Z
2023-11-30T06:32:33Z,42.805,6.029,13.3036,4.60108,2470.857,2023-11-30T08:35:02Z
2023-11-30T06:35:36Z,42.805,6.029,13.3034,4.60107,2470.857,2023-11-30T08:38:05Z
2023-11-30T06:38:39Z,42.805,6.029,13.3032,4.60106,2470.857,2023-11-30T08:41:08Z
2023-11-30T06:41:43Z,42.805,6.029,13.3030,4.60106,2470.857,2023-11-30T08:44:11Z
2023-11-30T06:44:46Z,42.805,6.029,13.3034,4.60106,2470.89,2023-11-30T08:47:14Z
2023-11-30T06:47:49Z,42.805,6.029,13.3035,4.60106,2470.857,2023-11-30T08:50:17Z
2023-11-30T06:50:52Z,42.805,6.029,13.3031,4.60105,2470.894,2023-11-30T08:53:20Z
2023-11-30T06:53:55Z,42.805,6.029,13.3036,4.60106,2470.894,2023-11-30T08:56:23Z
2023-11-30T06:56:58Z,42.805,6.029,13.3031,4.60106,2470.88,2023-11-30T08:59:26Z
2023-11-30T07:00:01Z,42.805,6.029,13.3031,4.60105,2470.857,2023-11-30T09:02:30Z
2023-11-30T07:03:04Z,42.805,6.029,13.3029,4.60105,2470.88,2023-11-30T09:05:33Z
2023-11-30T07:06:07Z,42.805,6.029,13.3031,4.60106,2470.904,2023-11-30T09:08:36Z
2023-11-30T07:09:10Z,42.805,6.029,13.3033,4.60107,2470.88,2023-11-30T09:11:39Z
2023-11-30T07:12:13Z,42.805,6.029,13.3034,4.60107,2470.94,2023-11-30T09:14:42Z
2023-11-30T07:15:16Z,42.805,6.029,13.3036,4.60106,2470.94,2023-11-30T09:17:45Z
2023-11-30T07:18:20Z,42.805,6.029,13.3034,4.60107,2470.927,2023-11-30T09:20:48Z
2023-11-30T07:21:23Z,42.805,6.029,13.3032,4.60107,2470.964,2023-11-30T09:23:51Z
2023-11-30T07:24:26Z,42.805,6.029,13.3035,4.60107,2470.927,2023-11-30T09:26:54Z
2023-11-30T07:27:29Z,42.805,6.029,13.3033,4.60106,2470.927,2023-11-30T09:29:57Z
2023-11-30T07:30:31Z,42.805,6.029,13.3037,4.60107,2470.973,2023-11-30T09:32:59Z
2023-11-30T07:33:34Z,42.805,6.029,13.3032,4.60105,2470.927,2023-11-30T09:36:02Z
2023-11-30T07:36:37Z,42.805,6.029,13.3035,4.60107,2470.964,2023-11-30T09:39:05Z
2023-11-30T07:39:40Z,42.805,6.029,13.3034,4.60107,2470.927,2023-11-30T09:42:09Z
2023-11-30T07:42:43Z,42.805,6.029,13.3035,4.60106,2470.927,2023-11-30T09:45:12Z
2023-11-30T07:45:46Z,42.805,6.029,13.3034,4.60104,2470.927,2023-11-30T09:48:15Z
2023-11-30T07:48:49Z,42.805,6.029,13.3032,4.60106,2470.904,2023-11-30T09:51:18Z
2023-11-30T07:51:52Z,42.805,6.029,13.3034,4.60107,2470.927,2023-11-30T09:54:21Z
2023-11-30T07:54:55Z,42.805,6.029,13.3032,4.60107,2470.95,2023-11-30T09:57:24Z
2023-11-30T07:57:59Z,42.805,6.029,13.3031,4.60107,2470.904,2023-11-30T10:00:27Z
2023-11-30T08:01:02Z,42.805,6.029,13.3033,4.60105,2470.964,2023-11-30T10:03:30Z
2023-11-30T08:04:05Z,42.805,6.029,13.3030,4.60106,2470.927,2023-11-30T10:06:33Z
2023-11-30T08:07:08Z,42.805,6.029,13.3034,4.60105,2470.95,2023-11-30T10:09:36Z
2023-11-30T08:10:11Z,42.805,6.029,13.3033,4.60107,2470.927,2023-11-30T10:12:39Z
2023-11-30T08:13:14Z,42.805,6.029,13.3036,4.60107,2470.95,2023-11-30T10:15:42Z
2023-11-30T08:16:17Z,42.805,6.029,13.3031,4.60107,2470.997,2023-11-30T10:18:46Z
2023-11-30T08:19:20Z,42.805,6.029,13.3034,4.60105,2470.973,2023-11-30T10:21:49Z
2023-11-30T08:22:23Z,42.805,6.029,13.3036,4.60106,2470.973,2023-11-30T10:24:52Z
2023-11-30T08:25:26Z,42.805,6.029,13.3036,4.60107,2470.987,2023-11-30T10:27:55Z
2023-11-30T08:28:29Z,42.805,6.029,13.3034,4.60108,2470.95,2023-11-30T10:30:58Z
2023-11-30T08:31:33Z,42.805,6.029,13.3034,4.60107,2470.973,2023-11-30T10:34:01Z
2023-11-30T08:34:36Z,42.805,6.029,13.3031,4.60107,2470.964,2023-11-30T10:37:04Z
2023-11-30T08:37:39Z,42.805,6.029,13.3036,4.60105,2470.973,2023-11-30T10:40:07Z
2023-11-30T08:40:42Z,42.805,6.029,13.3033,4.60106,2471.01,2023-11-30T10:43:10Z
2023-11-30T08:43:45Z,42.805,6.029,13.3035,4.60110,2470.973,2023-11-30T10:46:13Z
2023-11-30T08:46:48Z,42.805,6.029,13.3030,4.60107,2470.95,2023-11-30T10:49:16Z
2023-11-30T08:49:51Z,42.805,6.029,13.3032,4.60109,2470.997,2023-11-30T10:52:19Z
2023-11-30T08:52:54Z,42.805,6.029,13.3034,4.60107,2470.973,2023-11-30T10:55:23Z
2023-11-30T08:55:57Z,42.805,6.029,13.3035,4.60106,2470.95,2023-11-30T10:58:26Z
2023-11-30T08:59:00Z,42.805,6.029,13.3034,4.60107,2470.964,2023-11-30T11:01:29Z
2023-11-30T09:02:03Z,42.805,6.029,13.3038,4.60107,2470.927,2023-11-30T11:04:32Z
2023-11-30T09:05:06Z,42.805,6.029,13.3034,4.60107,2470.987,2023-11-30T11:07:35Z
2023-11-30T09:08:10Z,42.805,6.029,13.3034,4.60106,2470.997,2023-11-30T11:10:38Z
2023-11-30T09:11:13Z,42.805,6.029,13.3031,4.60107,2470.997,2023-11-30T11:13:41Z
2023-11-30T09:14:16Z,42.805,6.029,13.3034,4.60107,2470.964,2023-11-30T11:16:44Z
2023-11-30T09:17:19Z,42.805,6.029,13.3031,4.60107,2470.95,2023-11-30T11:19:47Z
2023-11-30T09:20:22Z,42.805,6.029,13.3034,4.60107,2470.95,2023-11-30T11:22:50Z
2023-11-30T09:23:25Z,42.805,6.029,13.3037,4.60110,2470.95,2023-11-30T11:25:53Z
2023-11-30T09:26:28Z,42.805,6.029,13.3036,4.60107,2471.01,2023-11-30T11:28:57Z
2023-11-30T09:29:31Z,42.805,6.029,13.3038,4.60107,2470.964,2023-11-30T11:32:00Z
2023-11-30T09:32:34Z,42.805,6.029,13.3033,4.60106,2470.987,2023-11-30T11:35:03Z
2023-11-30T09:35:37Z,42.805,6.029,13.3034,4.60106,2470.959,2023-11-30T11:38:06Z
2023-11-30T09:38:40Z,42.805,6.029,13.3033,4.60106,2470.95,2023-11-30T11:41:09Z
2023-11-30T09:41:44Z,42.805,6.029,13.3033,4.60106,2470.964,2023-11-30T11:44:12Z
2023-11-30T09:44:47Z,42.805,6.029,13.3033,4.60107,2470.95,2023-11-30T11:47:15Z
2023-11-30T09:47:50Z,42.805,6.029,13.3031,4.60107,2470.94,2023-11-30T11:50:18Z
2023-11-30T09:50:53Z,42.805,6.029,13.3034,4.60107,2470.936,2023-11-30T11:53:21Z
2023-11-30T09:53:56Z,42.805,6.029,13.3035,4.60107,2470.95,2023-11-30T11:56:24Z
2023-11-30T09:56:59Z,42.805,6.029,13.3034,4.60107,2470.973,2023-11-30T11:59:27Z
2023-11-30T10:00:02Z,42.805,6.029,13.3037,4.60106,2470.973,2023-11-30T12:02:31Z
2023-11-30T10:03:05Z,42.805,6.029,13.3039,4.60105,2470.964,2023-11-30T12:05:34Z
2023-11-30T10:06:08Z,42.805,6.029,13.3031,4.60107,2470.964,2023-11-30T12:08:37Z
2023-11-30T10:09:11Z,42.805,6.029,13.3034,4.60106,2470.95,2023-11-30T12:11:40Z
2023-11-30T10:12:14Z,42.805,6.029,13.3034,4.60106,2470.95,2023-11-30T12:14:43Z
2023-11-30T10:15:17Z,42.805,6.029,13.3032,4.60106,2470.964,2023-11-30T12:17:46Z
2023-11-30T10:18:21Z,42.805,6.029,13.3034,4.60105,2470.973,2023-11-30T12:20:49Z
2023-11-30T10:21:24Z,42.805,6.029,13.3032,4.60105,2470.95,2023-11-30T12:23:52Z
2023-11-30T10:24:27Z,42.805,6.029,13.3034,4.60105,2470.94,2023-11-30T12:26:55Z
2023-11-30T10:27:30Z,42.805,6.029,13.3032,4.60106,2470.95,2023-11-30T12:29:58Z
2023-11-30T10:30:33Z,42.805,6.029,13.3034,4.60107,2470.95,2023-11-30T12:33:01Z
2023-11-30T10:33:36Z,42.805,6.029,13.3034,4.60106,2470.959,2023-11-30T12:36:05Z
2023-11-30T10:36:39Z,42.805,6.029,13.3033,4.60105,2470.94,2023-11-30T12:39:08Z
2023-11-30T10:39:42Z,42.805,6.029,13.3029,4.60104,2470.927,2023-11-30T12:42:11Z
2023-11-30T10:42:45Z,42.805,6.029,13.3034,4.60104,2470.95,2023-11-30T12:45:14Z
2023-11-30T10:45:48Z,42.805,6.029,13.3030,4.60104,2470.927,2023-11-30T12:48:17Z
2023-11-30T10:48:51Z,42.805,6.029,13.3030,4.60105,2470.927,2023-11-30T12:51:20Z
2023-11-30T10:51:55Z,42.805,6.029,13.3031,4.60104,2470.964,2023-11-30T12:54:23Z
2023-11-30T10:54:58Z,42.805,6.029,13.3035,4.60103,2470.927,2023-11-30T12:57:26Z
2023-11-30T10:58:01Z,42.805,6.029,13.3034,4.60104,2470.927,2023-11-30T13:00:29Z
2023-11-30T11:01:04Z,42.805,6.029,13.3032,4.60105,2470.917,2023-11-30T13:03:32Z
2023-11-30T11:04:07Z,42.805,6.029,13.3033,4.60107,2470.927,2023-11-30T13:06:35Z
2023-11-30T11:07:10Z,42.805,6.029,13.3031,4.60104,2470.927,2023-11-30T13:09:38Z
2023-11-30T11:10:13Z,42.805,6.029,13.3034,4.60104,2470.95,2023-11-30T13:12:41Z
2023-11-30T11:13:16Z,42.805,6.029,13.3033,4.60104,2470.927,2023-11-30T13:15:45Z
2023-11-30T11:16:19Z,42.805,6.029,13.3033,4.60105,2470.927,2023-11-30T13:18:48Z
2023-11-30T11:19:22Z,42.805,6.029,13.3036,4.60106,2470.904,2023-11-30T13:21:51Z
2023-11-30T11:22:25Z,42.805,6.029,13.3033,4.60104,2470.94,2023-11-30T13:24:54Z
2023-11-30T11:25:28Z,42.805,6.029,13.3031,4.60105,2470.927,2023-11-30T13:27:57Z
2023-11-30T11:28:32Z,42.805,6.029,13.3034,4.60105,2470.904,2023-11-30T13:31:00Z
2023-11-30T11:31:35Z,42.805,6.029,13.3036,4.60105,2470.917,2023-11-30T13:34:03Z
2023-11-30T11:34:38Z,42.805,6.029,13.3034,4.60105,2470.927,2023-11-30T13:37:06Z
2023-11-30T11:37:41Z,42.805,6.029,13.3036,4.60106,2470.904,2023-11-30T13:40:09Z
2023-11-30T11:40:44Z,42.805,6.029,13.3031,4.60105,2470.88,2023-11-30T13:43:12Z
2023-11-30T11:43:47Z,42.805,6.029,13.3035,4.60104,2470.894,2023-11-30T13:46:15Z
2023-11-30T11:46:50Z,42.805,6.029,13.3036,4.60107,2470.904,2023-11-30T13:49:19Z
2023-11-30T11:49:53Z,42.805,6.029,13.3031,4.60107,2470.904,2023-11-30T13:52:22Z
2023-11-30T11:52:56Z,42.805,6.029,13.3031,4.60105,2470.904,2023-11-30T13:55:25Z
2023-11-30T11:55:59Z,42.805,6.029,13.3037,4.60106,2470.88,2023-11-30T13:58:28Z
2023-11-30T11:59:02Z,42.805,6.029,13.3034,4.60105,2470.927,2023-11-30T14:01:31Z
2023-11-30T12:02:05Z,42.805,6.029,13.3034,4.60104,2470.88,2023-11-30T14:04:34Z
2023-11-30T12:05:09Z,42.805,6.029,13.3034,4.60105,2470.904,2023-11-30T14:07:37Z
2023-11-30T12:08:12Z,42.805,6.029,13.3038,4.60106,2470.904,2023-11-30T14:10:40Z
2023-11-30T12:11:15Z,42.805,6.029,13.3036,4.60105,2470.88,2023-11-30T14:13:43Z
2023-11-30T12:14:18Z,42.805,6.029,13.3031,4.60105,2470.89,2023-11-30T14:16:46Z
2023-11-30T12:17:21Z,42.805,6.029,13.3036,4.60105,2470.904,2023-11-30T14:19:49Z
2023-11-30T12:20:24Z,42.805,6.029,13.3034,4.60109,2470.88,2023-11-30T14:22:52Z
2023-11-30T12:23:27Z,42.805,6.029,13.3034,4.60106,2470.88,2023-11-30T14:25:56Z
2023-11-30T12:26:30Z,42.805,6.029,13.3034,4.60106,2470.917,2023-11-30T14:28:59Z
2023-11-30T12:29:33Z,42.805,6.029,13.3035,4.60110,2470.88,2023-11-30T14:32:02Z
2023-11-30T12:32:36Z,42.805,6.029,13.3039,4.60107,2470.88,2023-11-30T14:35:05Z
2023-11-30T12:35:39Z,42.805,6.029,13.3034,4.60106,2470.904,2023-11-30T14:38:08Z
2023-11-30T12:38:43Z,42.805,6.029,13.3035,4.60107,2470.857,2023-11-30T14:41:11Z
2023-11-30T12:41:46Z,42.805,6.029,13.3041,4.60108,2470.894,2023-11-30T14:44:14Z
2023-11-30T12:44:49Z,42.805,6.029,13.3034,4.60107,2470.857,2023-11-30T14:47:17Z
2023-11-30T12:47:52Z,42.805,6.029,13.3037,4.60107,2470.894,2023-11-30T14:50:20Z
2023-11-30T12:50:55Z,42.805,6.029,13.3037,4.60107,2470.833,2023-11-30T14:53:23Z
2023-11-30T12:53:58Z,42.805,6.029,13.3034,4.60108,2470.894,2023-11-30T14:56:26Z
2023-11-30T12:57:01Z,42.805,6.029,13.3034,4.60106,2470.871,2023-11-30T14:59:30Z
2023-11-30T13:00:04Z,42.805,6.029,13.3034,4.60107,2470.871,2023-11-30T15:02:33Z
2023-11-30T13:03:07Z,42.805,6.029,13.3036,4.60106,2470.857,2023-11-30T15:05:36Z
2023-11-30T13:06:10Z,42.805,6.029,13.3037,4.60108,2470.847,2023-11-30T15:08:39Z
2023-11-30T13:09:13Z,42.805,6.029,13.3034,4.60108,2470.857,2023-11-30T15:11:42Z
2023-11-30T13:12:16Z,42.805,6.029,13.3037,4.60108,2470.88,2023-11-30T15:14:45Z
2023-11-30T13:15:20Z,42.805,6.029,13.3035,4.60107,2470.894,2023-11-30T15:17:48Z
2023-11-30T13:18:23Z,42.805,6.029,13.3033,4.60109,2470.857,2023-11-30T15:20:51Z
2023-11-30T13:21:26Z,42.805,6.029,13.3037,4.60107,2470.857,2023-11-30T15:23:54Z
2023-11-30T13:24:29Z,42.805,6.029,13.3039,4.60107,2470.833,2023-11-30T15:26:57Z
2023-11-30T13:27:32Z,42.805,6.029,13.3039,4.60107,2470.88,2023-11-30T15:30:00Z
2023-11-30T13:30:37Z,42.805,6.029,13.3034,4.60109,2470.833,2023-11-30T15:33:05Z
2023-11-30T13:33:40Z,42.805,6.029,13.3037,4.60108,2470.857,2023-11-30T15:36:08Z
2023-11-30T13:36:43Z,42.805,6.029,13.3034,4.60109,2470.847,2023-11-30T15:39:11Z
2023-11-30T13:39:46Z,42.805,6.029,13.3037,4.60108,2470.833,2023-11-30T15:42:14Z
2023-11-30T13:42:49Z,42.805,6.029,13.3036,4.60111,2470.833,2023-11-30T15:45:17Z
2023-11-30T13:45:52Z,42.805,6.029,13.3036,4.60109,2470.81,2023-11-30T15:48:21Z
2023-11-30T13:48:55Z,42.805,6.029,13.3039,4.60108,2470.833,2023-11-30T15:51:24Z
2023-11-30T13:51:58Z,42.805,6.029,13.3039,4.60112,2470.81,2023-11-30T15:54:27Z
2023-11-30T13:55:01Z,42.805,6.029,13.3036,4.60109,2470.833,2023-11-30T15:57:30Z
2023-11-30T13:58:04Z,42.805,6.029,13.3040,4.60110,2470.81,2023-11-30T16:00:33Z
2023-11-30T14:01:07Z,42.805,6.029,13.3039,4.60110,2470.847,2023-11-30T16:03:36Z
2023-11-30T14:04:11Z,42.805,6.029,13.3041,4.60110,2470.81,2023-11-30T16:06:39Z
2023-11-30T14:07:14Z,42.805,6.029,13.3038,4.60110,2470.82,2023-11-30T16:09:42Z
2023-11-30T14:10:17Z,42.805,6.029,13.3039,4.60112,2470.81,2023-11-30T16:12:45Z
2023-11-30T14:13:20Z,42.805,6.029,13.3036,4.60110,2470.81,2023-11-30T16:15:48Z
2023-11-30T14:16:23Z,42.805,6.029,13.3038,4.60110,2470.833,2023-11-30T16:18:51Z
2023-11-30T14:19:26Z,42.805,6.029,13.3035,4.60110,2470.796,2023-11-30T16:21:54Z
2023-11-30T14:22:29Z,42.805,6.029,13.3041,4.60111,2470.833,2023-11-30T16:24:58Z
2023-11-30T14:25:32Z,42.805,6.029,13.3039,4.60111,2470.833,2023-11-30T16:28:01Z
2023-11-30T14:28:35Z,42.805,6.029,13.3040,4.60111,2470.81,2023-11-30T16:31:04Z
2023-11-30T14:31:38Z,42.805,6.029,13.3036,4.60113,2470.81,2023-11-30T16:34:07Z
2023-11-30T14:34:41Z,42.805,6.029,13.3039,4.60113,2470.81,2023-11-30T16:37:10Z
2023-11-30T14:37:44Z,42.805,6.029,13.3039,4.60111,2470.81,2023-11-30T16:40:13Z
2023-11-30T14:40:48Z,42.805,6.029,13.3035,4.60112,2470.824,2023-11-30T16:43:16Z
2023-11-30T14:43:51Z,42.805,6.029,13.3038,4.60111,2470.81,2023-11-30T16:46:19Z
2023-11-30T14:46:54Z,42.805,6.029,13.3039,4.60112,2470.81,2023-11-30T16:49:22Z
2023-11-30T14:49:57Z,42.805,6.029,13.3040,4.60112,2470.833,2023-11-30T16:52:25Z
2023-11-30T14:53:00Z,42.805,6.029,13.3037,4.60113,2470.81,2023-11-30T16:55:28Z
2023-11-30T14:56:03Z,42.805,6.029,13.3035,4.60111,2470.824,2023-11-30T16:58:32Z
2023-11-30T14:59:06Z,42.805,6.029,13.3036,4.60112,2470.763,2023-11-30T17:01:35Z
2023-11-30T15:02:09Z,42.805,6.029,13.3041,4.60112,2470.824,2023-11-30T17:04:38Z